Point Lay, AK

10:46 PM AKDT on March 26, 2017 (GMT -0800)
Point Lay

Weather History for PPIZ - November, 2012

Change the Weather History Date:

Tuesday, November 27, 2012

  Actual Average Record
Temperature  
Mean Temperature -4 °F -  
Max Temperature 0 °F 4 °F 22 °F (2006)
Min Temperature -10 °F -1 °F -27 °F (2011)
Degree Days  
Heating Degree Days 70    
Moisture  
Dew Point -12 °F    
Average Humidity 78    
Maximum Humidity 84    
Minimum Humidity 71    
Precipitation  
Precipitation 0.00 in - - ()
Sea Level Pressure  
Sea Level Pressure 30.36 in    
Wind  
Wind Speed 29 mph (ENE)    
Max Wind Speed 37 mph    
Max Gust Speed 45 mph    
Averages and records for this station are not official NWS values.
T = Trace of Precipitation, MM = Missing Value Source: NWS Daily Summary

Daily Weather History Graph

Daily Weather History Graph

Search for Another Location

Airport or City:

Trip Planner

Search our weather history database for the weather conditions in past years. The results will help you decide how hot, cold, wet, or windy it might be!

Date:

Astronomy

Nov. 27, 2012 Rise Set
Actual Time 1:07 PM AKST 2:12 PM AKST
Civil Twilight 10:48 AM AKST 4:31 PM AKST
Nautical Twilight 9:16 AM AKST 6:02 PM AKST
Astronomical Twilight 8:02 AM AKST 7:16 PM AKST
Moon 2:12 PM AKST 11:58 AM AKST
Length of Visible Light 5h 42m
Length of Day
1h 04m
Full, 100% of the Moon is Illuminated
Nov 27
Full
Nov 28
Full
Dec 6
Last Quarter
Dec 12
New
Dec 19
First Quarter

Hourly Weather History & Observations

Time (AKST) Temp. Windchill Dew Point Humidity Pressure Visibility Wind Dir Wind Speed Gust Speed Precip Events Conditions
12:56 AM -0.9 °F -27.8 °F -4.9 °F 83% 30.25 in - ENE 32.2 mph 39.1 mph 0.00 in Snow Light Snow
1:56 AM -0.9 °F -27.8 °F -6.0 °F 79% 30.26 in - ENE 32.2 mph 41.4 mph 0.00 in Snow Light Snow
2:56 AM -0.9 °F -29.2 °F -4.9 °F 83% 30.27 in - ENE 36.8 mph 44.9 mph 0.00 in Snow Light Snow
3:56 AM -1.8 °F -30.1 °F -6.9 °F 79% 30.26 in - ENE 35.7 mph 44.9 mph 0.00 in Snow Light Snow
4:56 AM -2.9 °F -31.6 °F -6.9 °F 83% 30.27 in - ENE 35.7 mph 42.6 mph 0.00 in Snow Light Snow
5:56 AM -4.0 °F -33.1 °F -8.0 °F 83% 30.28 in - ENE 35.7 mph 43.7 mph 0.00 in Snow Light Snow
6:56 AM -4.0 °F -31.6 °F -8.9 °F 80% 30.30 in - ENE 31.1 mph 41.4 mph 0.00 in   Mostly Cloudy
7:56 AM -4.9 °F -32.9 °F -8.9 °F 83% 30.30 in - ENE 31.1 mph 38.0 mph 0.00 in   Mostly Cloudy
8:56 AM -4.9 °F -32.9 °F -8.9 °F 83% 30.32 in - ENE 31.1 mph 39.1 mph 0.00 in   Mostly Cloudy
9:56 AM -4.9 °F -33.3 °F -9.9 °F 79% 30.33 in - ENE 32.2 mph 40.3 mph N/A   Mostly Cloudy
10:46 AM -5.8 °F -33.7 °F -11.2 °F 77% 30.34 in - ENE 29.9 mph 36.8 mph N/A   Clear
10:56 AM -6.0 °F -34.3 °F -10.8 °F 79% 30.35 in - ENE 31.1 mph 36.8 mph N/A   Clear
11:56 AM -5.8 °F -32.9 °F -11.2 °F 77% 30.35 in - ENE 27.6 mph - N/A   Clear
12:47 PM -7.6 °F -35.3 °F -11.2 °F 84% 30.35 in - ENE 27.6 mph - N/A   Mostly Cloudy
12:56 PM -6.9 °F -33.9 °F -11.9 °F 79% 30.37 in - ENE 26.5 mph - N/A   Mostly Cloudy
1:22 PM -7.6 °F -34.8 °F -11.2 °F 84% 30.36 in - ENE 26.5 mph - N/A   Clear
1:49 PM -7.6 °F -35.7 °F -11.2 °F 84% 30.37 in - ENE 28.8 mph 35.7 mph N/A   Mostly Cloudy
1:56 PM -6.9 °F -34.3 °F -13.0 °F 75% 30.38 in - ENE 27.6 mph 35.7 mph N/A   Mostly Cloudy
2:37 PM -7.6 °F -36.1 °F -11.2 °F 84% 30.36 in - ENE 29.9 mph 35.7 mph N/A   Clear
2:56 PM -6.9 °F -34.3 °F -11.9 °F 79% 30.37 in - ENE 27.6 mph 36.8 mph N/A   Mostly Cloudy
3:45 PM -5.8 °F -31.5 °F -11.2 °F 77% 30.37 in - ENE 24.2 mph 32.2 mph N/A   Clear
3:56 PM -6.0 °F -32.2 °F -11.9 °F 75% 30.38 in - ENE 25.3 mph 34.5 mph N/A   Mostly Cloudy
4:48 PM -7.6 °F -34.4 °F -13.0 °F 77% 30.38 in - ENE 25.3 mph - N/A   Clear
4:56 PM -6.9 °F -32.9 °F -13.0 °F 75% 30.39 in - ENE 24.2 mph - N/A   Mostly Cloudy
5:56 PM -7.6 °F -33.9 °F -13.0 °F 77% 30.39 in - ENE 24.2 mph - N/A   Clear
6:09 PM -7.6 °F -34.4 °F -13.0 °F 77% 30.39 in - ENE 25.3 mph 34.5 mph N/A   Mostly Cloudy
6:56 PM -8.0 °F -35.3 °F -13.9 °F 75% 30.40 in - ENE 26.5 mph - N/A   Mostly Cloudy
7:06 PM -9.4 °F -37.7 °F -14.8 °F 77% 30.38 in - ENE 27.6 mph 32.2 mph N/A   Clear
7:14 PM -9.4 °F -36.8 °F -14.8 °F 77% 30.38 in - ENE 25.3 mph - N/A   Mostly Cloudy
7:56 PM -8.9 °F -35.1 °F -15.0 °F 75% 30.41 in - ENE 23.0 mph - N/A   Mostly Cloudy
8:56 PM -8.9 °F -35.1 °F -15.9 °F 71% 30.43 in - ENE 23.0 mph - N/A   Mostly Cloudy
9:56 PM -9.9 °F -34.2 °F -15.9 °F 75% 30.43 in - ENE 18.4 mph - N/A   Overcast
10:56 PM -8.9 °F -30.7 °F -15.9 °F 71% 30.45 in - ENE 15.0 mph - N/A   Overcast
11:36 PM -9.4 °F -33.5 °F -16.6 °F 71% 30.44 in - ENE 18.4 mph - N/A   Clear
11:43 PM -9.4 °F -29.8 °F -16.6 °F 71% 30.44 in - East 12.7 mph 21.9 mph N/A   Mostly Cloudy
11:56 PM -10.8 °F -34.7 °F -17.0 °F 74% 30.46 in - ENE 17.3 mph 25.3 mph N/A   Mostly Cloudy